Location: ???????
(54.6339°N, 39.4245°E)
Time: 10:13:10
(UTC+00:00)

USA 238 - Pass Details

Date: 19 May 2025
Orbit: 897 x 1314 km, 63.4° (Epoch: 01 June)

Event Time Altitude Azimuth Distance (km) Brightness Sun altitude
Rises 23:06:41 0° 309° (NW) 3,879 6.8 -11.9°
Reaches altitude 10° 23:09:14 10° 310° (NW) 2,978 6.2 -11.7°
Maximum altitude 23:16:26 87° 39° (NE) 1,200 4.0 -11.3°
Drops below altitude 10° 23:24:21 10° 131° (SE) 3,251 6.1 -10.7°
Sets 23:27:14 0° 132° (SE) 4,252 6.7 -10.5°
